Regional Weather Roundup
Issued by NWS

Home | Current Version | Previous Version | Text Only | Print | Product List | Glossary Off
Versions: 1 2 3 4 5 6 7 8 9 10 11 12 13 14 15 16 17 18 19 20 21 22 23 24 25 26 27 28 29 30 31 32 33 34 35 36 37 38 39 40 41 42 43 44 45 46 47 48 49 50

000
ASUS43 KTOP 280508
RWRKS

WEATHER ROUNDUP FOR KANSAS
NATIONAL WEATHER SERVICE GOODLAND KS
1200 AM CDT THU AUG 28 2014

NOTE:  "FAIR" INDICATES FEW OR NO CLOUDS BELOW 12,000 FEET WITH NO
SIGNIFICANT WEATHER AND/OR OBSTRUCTIONS TO VISIBILITY.

KSZ001>006-013>018-027>032-041>047-280600-
NORTHWEST KANSAS

CITY           SKY/WX    TMP DP  RH WIND       PRES   REMARKS
GOODLAND       PTCLDY    67  66  97 S13       30.00F
HAYS           CLOUDY    72  64  78 NE7       29.99R
HILL CITY      MOCLDY    67  65  93 E6        30.00S
RUSSELL        MOCLDY    75  68  78 CALM      29.98R
$$

KSZ061>065-074>080-084>089-280600-
SOUTHWEST KANSAS

CITY           SKY/WX    TMP DP  RH WIND       PRES   REMARKS
DODGE CITY     PTCLDY    71  63  75 S12       29.99F
ELKHART          N/A     69  61  76 S15         N/A
GARDEN CITY    CLEAR     68  64  87 S7        29.99F
GREAT BEND     MOCLDY    73  66  78 S6        29.98S
LIBERAL        CLEAR     70  63  78 S13       30.02F
PRATT          CLOUDY    75  63  64 S8        30.00S
$$

KSZ066>073-081>083-090>101-280600-
SOUTHEAST KANSAS

CITY           SKY/WX    TMP DP  RH WIND       PRES   REMARKS
CHANUTE        CLOUDY    79  67  66 SE9       30.02F
COFFEYVILLE    PTCLDY    81  69  67 SE7       29.99F
HUTCHINSON     CLOUDY    82  64  54 SE13      29.97F
MEDICINE LODGE   N/A     82  64  54 S6        29.97F
NEWTON         CLOUDY    81  61  50 S10       30.03S
PARSONS        MOCLDY    81  67  62 SE5       30.02F
WICHITA INTL   CLOUDY    82  64  54 S12       29.98S
WICHITA JABRA  MOCLDY    81  64  56 S10       29.99S
WICHITA MCCONL MOCLDY    81  64  55 SE10      30.00S
WINFIELD       PTCLDY    79  65  62 S8        30.01S
$$

KSZ007>012-019>026-033>040-048>060-102>105-280600-
NORTHEAST KANSAS

CITY           SKY/WX    TMP DP  RH WIND       PRES   REMARKS
CONCORDIA      LGT RAIN  74  72  93 E8        29.97F
EMPORIA        MOCLDY    79  69  71 SE12      30.01S
LAWRENCE       MOCLDY    79  73  82 E7        30.02F
MANHATTAN      CLOUDY    79  70  74 E6        29.98F
MARYSVILLE     CLOUDY    73  72  94 SE8       30.01S
OLATHE IND     CLOUDY    77  73  87 E5        30.04S
OLATHE EXE     CLOUDY    78  73  84 E8        30.03F
SALINA         CLOUDY    82  66  58 SE8       29.96F
TOPEKA BILLARD MOCLDY    79  75  87 E5        30.01F
TOPEKA FORBES  MOCLDY    79  72  79 SE8       30.02S
$$



USA.gov is the U.S. government's official web portal to all federal, state and local government web resources and services.